FW0868 Vashon WA US current weather conditions

sailwx.info

Wind from 215

Air temperature 15.0° C
Dewpoint 9.8° C

Last reported at 2020-Aug-12 06:10 UTC.
Time now 2020-Aug-12 12:54 UTC

Location: N 47°24' W 122°27'.
View on Google Maps.

See reports from other nearby stations

  
Tides and Currents Weather Stations Pressure Air Temp Water Temp Dewpoint Dewpoint Depression Visibility Wind Speed Wind Dir Waves Ship Positions
date/time (UTC)wind fromknots sea level pressurealtimeterstation pressurevisibilityair tempwater tempwave heightnotes
2020-Aug-12 06:10 215 15.0
2020-Aug-12 06:00 216 15.0
2020-Aug-12 05:50 219 15.0
2020-Aug-12 05:40 224 15.0
2020-Aug-12 05:30 219 0 gusting 2 15.6
2020-Aug-12 05:20 154 15.6
2020-Aug-12 05:10 157 0 gusting 3 15.6
2020-Aug-12 05:00 161 16.1
2020-Aug-12 04:50 161 16.1
2020-Aug-12 04:40 167 16.1
2020-Aug-12 04:30 138 16.7
2020-Aug-12 04:20 104 16.7
2020-Aug-12 04:10 190 0 gusting 5 16.7
2020-Aug-12 04:00 173 1 gusting 5 17.2
2020-Aug-12 03:50 167 0 gusting 3 17.2
2020-Aug-12 03:40 178 1 gusting 5 17.8
2020-Aug-12 03:30 166 2 gusting 6 17.8
2020-Aug-12 03:20 178 2 gusting 7 17.8
2020-Aug-12 03:10 171 2 gusting 7 17.8
2020-Aug-12 03:00 168 2 gusting 6 18.3
2020-Aug-12 02:50 162 3 gusting 8 18.9
2020-Aug-12 02:40 165 1 gusting 6 18.9
2020-Aug-12 02:30 160 1 gusting 6 18.9
2020-Aug-12 02:20 172 2 gusting 6 19.4
2020-Aug-12 02:10 172 3 gusting 6 19.4
2020-Aug-12 02:00 172 3 gusting 6 20.0
2020-Aug-12 01:50 168 2 gusting 6 20.0
2020-Aug-12 01:40 169 3 gusting 7 20.0
2020-Aug-12 01:30 172 4 gusting 9 20.6
2020-Aug-12 01:20 170 3 gusting 7 21.1
2020-Aug-12 01:00 173 2 gusting 7 21.7
2020-Aug-12 00:50 172 2 gusting 8 22.2
2020-Aug-12 00:40 169 2 gusting 7 22.2
2020-Aug-12 00:30 176 2 gusting 7 22.8
2020-Aug-12 00:20 179 2 gusting 8 22.8
2020-Aug-12 00:10 177 2 gusting 7 23.3
2020-Aug-12 00:00 166 4 gusting 8 23.9
2020-Aug-11 23:50 164 3 gusting 6 23.9
2020-Aug-11 23:40 167 3 gusting 7 23.9
2020-Aug-11 23:30 173 3 gusting 9 23.3
2020-Aug-11 23:20 171 3 gusting 8 23.3
2020-Aug-11 23:10 162 3 gusting 7 23.3
2020-Aug-11 23:00 173 4 gusting 8 23.9
2020-Aug-11 22:50 167 3 gusting 7 23.9
2020-Aug-11 22:40 176 4 gusting 9 23.9
2020-Aug-11 22:30 173 3 gusting 9 23.9
2020-Aug-11 22:20 163 3 gusting 7 23.3
2020-Aug-11 22:10 165 3 gusting 6 23.3
2020-Aug-11 22:00 160 3 gusting 7 23.3
2020-Aug-11 21:50 170 2 gusting 6 22.8
2020-Aug-11 21:40 164 3 gusting 6 22.8
2020-Aug-11 21:30 167 3 gusting 6 22.2
2020-Aug-11 21:20 161 3 gusting 7 22.2
2020-Aug-11 21:10 163 3 gusting 7 21.7
2020-Aug-11 21:00 166 4 gusting 8 21.1
2020-Aug-11 20:50 156 3 gusting 8 21.1
2020-Aug-11 20:40 168 3 gusting 6 21.1
2020-Aug-11 20:30 158 3 gusting 8 21.1
2020-Aug-11 20:20 162 4 gusting 8 20.0
2020-Aug-11 20:10 160 4 gusting 8 20.0
2020-Aug-11 20:00 163 3 gusting 8 20.0
2020-Aug-11 19:50 155 4 gusting 7 19.4
2020-Aug-11 19:40 169 4 gusting 7 19.4
2020-Aug-11 19:30 158 3 gusting 8 19.4
2020-Aug-11 19:20 167 3 gusting 7 18.9
2020-Aug-11 19:10 181 4 gusting 8 18.3
2020-Aug-11 19:00 179 4 gusting 8 18.3
2020-Aug-11 18:50 170 3 gusting 7 17.8
2020-Aug-11 18:40 167 4 gusting 9 17.2
2020-Aug-11 18:30 163 3 gusting 8 17.8
2020-Aug-11 18:20 171 3 gusting 7 17.8
2020-Aug-11 18:10 167 3 gusting 7 17.2
2020-Aug-11 18:00 170 4 gusting 9 16.7
2020-Aug-11 17:50 169 3 gusting 8 16.7
2020-Aug-11 17:40 173 3 gusting 6 16.1
2020-Aug-11 17:30 175 3 gusting 7 16.1
2020-Aug-11 17:20 175 3 gusting 6 15.6
2020-Aug-11 17:10 166 3 gusting 6 15.0
2020-Aug-11 17:00 170 3 gusting 6 15.0
2020-Aug-11 16:50 179 2 gusting 6 15.0
2020-Aug-11 16:40 166 2 gusting 7 15.0
2020-Aug-11 06:20 16.1
2020-Aug-11 06:10 023 16.7
2020-Aug-11 06:00 16.7
2020-Aug-11 05:50 16.7
2020-Aug-11 05:40 024 16.7
2020-Aug-11 05:30 024 17.2
2020-Aug-11 05:20 024 0 gusting 1 17.2
2020-Aug-11 05:10 025 17.2
2020-Aug-11 05:00 17.8
2020-Aug-11 04:50 17.8
2020-Aug-11 04:40 18.3
2020-Aug-11 04:30 039 18.9
2020-Aug-11 04:20 050 0 gusting 1 19.4
2020-Aug-11 04:10 081 19.4
2020-Aug-11 04:00 079 19.4
2020-Aug-11 03:50 077 20.0
2020-Aug-11 03:40 306 20.6
2020-Aug-11 03:30 333 21.1
2020-Aug-11 03:20 093 21.1
2020-Aug-11 03:10 341 21.7
2020-Aug-11 03:00 262 0 gusting 3 21.7
2020-Aug-11 02:50 286 0 gusting 3 22.2
2020-Aug-11 02:40 294 0 gusting 5 22.2
2020-Aug-11 02:30 302 1 gusting 4 22.8
2020-Aug-11 02:20 312 0 gusting 3 23.3
2020-Aug-11 02:10 270 0 gusting 5 23.3
2020-Aug-11 02:00 308 0 gusting 5 23.9
2020-Aug-11 01:50 306 1 gusting 7 24.4
2020-Aug-11 01:40 339 0 gusting 4 24.4
2020-Aug-11 01:30 294 1 gusting 6 25.0
2020-Aug-11 01:20 325 1 gusting 4 25.0
2020-Aug-11 01:10 312 1 gusting 6 25.6
2020-Aug-11 01:00 287 0 gusting 4 26.1
2020-Aug-11 00:40 287 2 gusting 7 26.1
2020-Aug-11 00:30 283 1 gusting 6 27.2
2020-Aug-11 00:20 280 1 gusting 7 27.2
2020-Aug-11 00:10 118 0 gusting 2 27.8
2020-Aug-11 00:00 178 0 gusting 4 27.2
2020-Aug-10 23:50 102 0 gusting 3 27.2
2020-Aug-10 23:40 300 0 gusting 3 27.2
2020-Aug-10 23:30 153 0 gusting 3 27.2
2020-Aug-10 23:20 133 0 gusting 2 27.2
2020-Aug-10 23:10 054 0 gusting 3 27.2
2020-Aug-10 23:00 343 1 gusting 4 26.7
2020-Aug-10 22:50 064 0 gusting 3 26.7
2020-Aug-10 22:40 003 1 gusting 3 26.7
2020-Aug-10 22:30 052 1 gusting 4 26.7
2020-Aug-10 22:20 062 1 gusting 4 26.7
2020-Aug-10 22:10 106 0 gusting 3 26.7
2020-Aug-10 22:00 114 0 gusting 3 26.7
2020-Aug-10 21:50 113 1 gusting 4 26.1
2020-Aug-10 21:40 042 1 gusting 5 26.1
2020-Aug-10 21:30 008 1 gusting 4 26.7
2020-Aug-10 21:20 098 1 gusting 4 26.7
2020-Aug-10 21:10 071 0 gusting 2 26.7
2020-Aug-10 21:00 115 0 gusting 2 26.7
2020-Aug-10 20:50 102 0 gusting 3 26.1
2020-Aug-10 20:40 110 0 gusting 3 26.1
2020-Aug-10 20:30 124 1 gusting 4 25.6
2020-Aug-10 20:20 001 1 gusting 4 25.0
2020-Aug-10 20:10 311 1 gusting 3 25.0
2020-Aug-10 20:00 124 1 gusting 4 24.4
2020-Aug-10 19:50 108 1 gusting 5 24.4
2020-Aug-10 19:40 289 1 gusting 6 23.9
2020-Aug-10 19:30 274 1 gusting 6 23.9
2020-Aug-10 19:20 310 1 gusting 7 23.9
2020-Aug-10 19:10 122 1 gusting 6 23.9
2020-Aug-10 19:00 038 0 gusting 3 24.4
2020-Aug-10 18:50 040 0 gusting 4 23.9
2020-Aug-10 18:40 224 1 gusting 5 23.3
2020-Aug-10 18:30 277 1 gusting 6 23.3
2020-Aug-10 18:20 205 1 gusting 5 23.3
2020-Aug-10 18:10 287 0 gusting 3 23.9
2020-Aug-10 18:00 209 0 gusting 1 23.3
2020-Aug-10 17:50 335 0 gusting 4 23.3
2020-Aug-10 17:40 134 0 gusting 2 23.3
2020-Aug-10 17:30 215 0 gusting 2 22.2
2020-Aug-10 17:20 132 0 gusting 4 21.7
2020-Aug-10 17:10 331 0 gusting 3 21.1
2020-Aug-10 17:00 010 0 gusting 2 21.1
2020-Aug-10 16:50 322 0 gusting 1 20.6